Hourly Weather Alimkent

Today, 7 March, Sunday

Time Temperature Precipitation Wind Pressure Humidity
00:00 +8°C° 0.3 mm 2 mps 731 mmHg 64%
01:00 +7°C° 0.3 mm 2 mps 731 mmHg 71%
02:00 +7°C° 0.3 mm 2 mps 731 mmHg 77%
03:00 +7°C° 0.2 mm 2 mps 732 mmHg 78%
04:00 +7°C° 0.2 mm 3 mps 732 mmHg 79%
05:00 +6°C° 0.2 mm 4 mps 733 mmHg 80%
06:00 +6°C° 0.4 mm 4 mps 733 mmHg 81%
07:00 +7°C° 0.4 mm 3 mps 734 mmHg 82%
08:00 +7°C° 0.4 mm 3 mps 734 mmHg 82%
09:00 +8°C° 0.1 mm 3 mps 734 mmHg 79%
10:00 +8°C° 0.1 mm 2 mps 734 mmHg 75%
11:00 +10°C° 0.1 mm 1 mps 735 mmHg 72%
12:00 +10°C° 0 mm 1 mps 734 mmHg 67%
13:00 +11°C° 0 mm 1 mps 734 mmHg 62%
14:00 +12°C° 0 mm 1 mps 734 mmHg 57%
15:00 +12°C° 0 mm 1 mps 734 mmHg 56%
16:00 +12°C° 0 mm 1 mps 733 mmHg 56%
17:00 +12°C° 0 mm 1 mps 733 mmHg 55%
18:00 +11°C° 0 mm 1 mps 733 mmHg 59%
19:00 +11°C° 0 mm 1 mps 733 mmHg 63%
20:00 +10°C° 0 mm 1 mps 733 mmHg 67%
21:00 +10°C° 0 mm 1 mps 733 mmHg 68%
22:00 +9°C° 0 mm 1 mps 733 mmHg 70%
23:00 +9°C° 0 mm 1 mps 733 mmHg 71%

Tomorrow, 8 March, Monday

Time Temperature Precipitation Wind Pressure Humidity
00:00 +9°C° 0 mm 1 mps 733 mmHg 71%
01:00 +9°C° 0 mm 1 mps 733 mmHg 72%
02:00 +8°C° 0 mm 1 mps 733 mmHg 72%
03:00 +8°C° 0 mm 1 mps 733 mmHg 73%
04:00 +8°C° 0 mm 1 mps 733 mmHg 73%
05:00 +8°C° 0 mm 1 mps 733 mmHg 73%
06:00 +8°C° 0 mm 1 mps 733 mmHg 72%
07:00 +9°C° 0 mm 1 mps 734 mmHg 71%
08:00 +8°C° 0 mm 0 mps 734 mmHg 69%
09:00 +11°C° 0 mm 1 mps 734 mmHg 63%
10:00 +12°C° 0 mm 1 mps 735 mmHg 58%
11:00 +14°C° 0 mm 1 mps 735 mmHg 52%
12:00 +14°C° 0 mm 1 mps 735 mmHg 49%
13:00 +15°C° 0 mm 1 mps 735 mmHg 46%
14:00 +16°C° 0 mm 1 mps 735 mmHg 43%
15:00 +16°C° 0 mm 1 mps 735 mmHg 42%
16:00 +16°C° 0 mm 1 mps 735 mmHg 42%
17:00 +15°C° 0 mm 0 mps 735 mmHg 41%
18:00 +15°C° 0 mm 1 mps 735 mmHg 45%
19:00 +14°C° 0 mm 1 mps 735 mmHg 49%
20:00 +13°C° 0 mm 1 mps 735 mmHg 53%
21:00 +13°C° 0 mm 1 mps 735 mmHg 55%
22:00 +13°C° 0 mm 1 mps 735 mmHg 56%
23:00 +12°C° 0 mm 2 mps 734 mmHg 58%

Day after tomorrow, 9 March, Tuesday

Time Temperature Precipitation Wind Pressure Humidity
00:00 +12°C° 0 mm 2 mps 734 mmHg 58%
01:00 +12°C° 0 mm 2 mps 734 mmHg 57%
02:00 +10°C° 0 mm 2 mps 733 mmHg 57%
03:00 +10°C° 0 mm 2 mps 733 mmHg 56%
04:00 +11°C° 0 mm 1 mps 732 mmHg 54%
05:00 +11°C° 0 mm 1 mps 732 mmHg 53%
06:00 +11°C° 0 mm 1 mps 732 mmHg 52%
07:00 +11°C° 0 mm 1 mps 732 mmHg 51%
08:00 +12°C° 0 mm 1 mps 732 mmHg 51%
09:00 +13°C° 0 mm 1 mps 731 mmHg 46%
10:00 +14°C° 0 mm 0 mps 731 mmHg 42%
11:00 +15°C° 0 mm 0 mps 731 mmHg 37%
12:00 +18°C° 0 mm 1 mps 730 mmHg 35%
13:00 +19°C° 0 mm 1 mps 730 mmHg 33%
14:00 +20°C° 0 mm 1 mps 729 mmHg 30%
15:00 +20°C° 0 mm 1 mps 729 mmHg 32%
16:00 +20°C° 0 mm 1 mps 729 mmHg 34%
17:00 +20°C° 0 mm 1 mps 728 mmHg 36%
18:00 +19°C° 0 mm 1 mps 728 mmHg 37%
19:00 +18°C° 0 mm 1 mps 728 mmHg 39%
20:00 +15°C° 0 mm 1 mps 728 mmHg 41%
21:00 +15°C° 0 mm 1 mps 728 mmHg 42%
22:00 +15°C° 0 mm 1 mps 728 mmHg 42%
23:00 +15°C° 0 mm 1 mps 728 mmHg 43%

10 March, Wednesday

Time Temperature Precipitation Wind Pressure Humidity
00:00 +15°C° 0 mm 1 mps 728 mmHg 44%
01:00 +15°C° 0 mm 2 mps 728 mmHg 45%
02:00 +13°C° 0 mm 3 mps 727 mmHg 45%
03:00 +13°C° 0 mm 3 mps 727 mmHg 47%
04:00 +13°C° 0 mm 3 mps 728 mmHg 48%
05:00 +13°C° 0 mm 3 mps 728 mmHg 50%
06:00 +12°C° 0.2 mm 4 mps 728 mmHg 53%
07:00 +12°C° 0.2 mm 5 mps 729 mmHg 56%
08:00 +12°C° 0.2 mm 5 mps 729 mmHg 59%
09:00 +13°C° 0 mm 5 mps 730 mmHg 55%
10:00 +14°C° 0 mm 5 mps 730 mmHg 51%
11:00 +15°C° 0 mm 4 mps 731 mmHg 47%
12:00 +15°C° 0 mm 4 mps 731 mmHg 46%
13:00 +14°C° 0 mm 3 mps 732 mmHg 44%
14:00 +14°C° 0 mm 3 mps 732 mmHg 42%
15:00 +13°C° 0.1 mm 3 mps 732 mmHg 49%
16:00 +12°C° 0.1 mm 3 mps 733 mmHg 56%
17:00 +12°C° 0.1 mm 3 mps 733 mmHg 63%
18:00 +11°C° 0.4 mm 3 mps 733 mmHg 68%
19:00 +10°C° 0.4 mm 2 mps 734 mmHg 73%
20:00 +9°C° 0.4 mm 2 mps 734 mmHg 78%
21:00 +9°C° 0.4 mm 2 mps 734 mmHg 78%
22:00 +8°C° 0.4 mm 3 mps 734 mmHg 79%
23:00 +8°C° 0.4 mm 3 mps 734 mmHg 80%

11 March, Thursday

Time Temperature Precipitation Wind Pressure Humidity
00:00 +8°C° 0.3 mm 3 mps 734 mmHg 78%
01:00 +8°C° 0.3 mm 3 mps 734 mmHg 77%
02:00 +6°C° 0.3 mm 4 mps 733 mmHg 75%
03:00 +7°C° 0.3 mm 3 mps 733 mmHg 75%
04:00 +7°C° 0.3 mm 3 mps 734 mmHg 75%
05:00 +7°C° 0.3 mm 3 mps 734 mmHg 75%
06:00 +7°C° 0.1 mm 2 mps 734 mmHg 76%
07:00 +8°C° 0.1 mm 1 mps 734 mmHg 77%
08:00 +8°C° 0.1 mm 1 mps 734 mmHg 78%
09:00 +10°C° 0 mm 1 mps 734 mmHg 71%
10:00 +11°C° 0 mm 1 mps 733 mmHg 65%
11:00 +12°C° 0 mm 1 mps 733 mmHg 58%
12:00 +13°C° 0 mm 1 mps 733 mmHg 54%
13:00 +14°C° 0 mm 1 mps 732 mmHg 50%
14:00 +15°C° 0 mm 1 mps 732 mmHg 47%
15:00 +15°C° 0 mm 1 mps 732 mmHg 46%
16:00 +16°C° 0 mm 1 mps 732 mmHg 45%
17:00 +15°C° 0 mm 0 mps 732 mmHg 44%
18:00 +15°C° 0 mm 1 mps 732 mmHg 48%
19:00 +14°C° 0 mm 1 mps 732 mmHg 52%
20:00 +13°C° 0 mm 1 mps 732 mmHg 56%
21:00 +13°C° 0 mm 1 mps 731 mmHg 58%
22:00 +12°C° 0 mm 1 mps 731 mmHg 59%
23:00 +12°C° 0 mm 2 mps 731 mmHg 61%

12 March, Friday

Time Temperature Precipitation Wind Pressure Humidity
00:00 +12°C° 0 mm 1 mps 730 mmHg 61%
01:00 +11°C° 0 mm 1 mps 729 mmHg 60%
02:00 +11°C° 0 mm 1 mps 729 mmHg 60%
03:00 +11°C° 0 mm 1 mps 728 mmHg 60%
04:00 +11°C° 0 mm 1 mps 728 mmHg 60%
05:00 +10°C° 0 mm 1 mps 728 mmHg 60%
06:00 +11°C° 0 mm 1 mps 727 mmHg 59%
07:00 +11°C° 0 mm 1 mps 727 mmHg 58%
08:00 +11°C° 0 mm 1 mps 727 mmHg 57%
09:00 +13°C° 0 mm 1 mps 726 mmHg 49%
10:00 +15°C° 0 mm 1 mps 726 mmHg 42%
11:00 +18°C° 0 mm 1 mps 726 mmHg 35%
12:00 +19°C° 0 mm 1 mps 725 mmHg 34%
13:00 +20°C° 0 mm 1 mps 725 mmHg 32%
14:00 +20°C° 0 mm 1 mps 725 mmHg 31%
15:00 +20°C° 0 mm 1 mps 725 mmHg 34%
16:00 +19°C° 0 mm 1 mps 725 mmHg 38%
17:00 +18°C° 0 mm 2 mps 726 mmHg 41%
18:00 +17°C° 0 mm 2 mps 726 mmHg 42%
19:00 +16°C° 0 mm 2 mps 726 mmHg 44%
20:00 +16°C° 0 mm 2 mps 727 mmHg 46%
21:00 +16°C° 0 mm 2 mps 727 mmHg 49%
22:00 +15°C° 0 mm 2 mps 727 mmHg 52%
23:00 +15°C° 0 mm 2 mps 727 mmHg 55%
Show more